Regional Weather Roundup
Issued by NWS

Home | Current Version | Previous Version | Graphics & Text | Print | Product List | Glossary On
Versions: 1 2 3 4 5 6 7 8 9 10 11 12 13 14 15 16 17 18 19 20 21 22 23 24 25 26 27 28 29 30 31 32 33 34 35 36 37 38 39 40 41 42 43 44 45 46 47 48 49 50
000
ASUS43 KOAX 180902
RWRNE

WEATHER ROUNDUP FOR NEBRASKA
NATIONAL WEATHER SERVICE OMAHA NE
300 AM CST THU JAN 18 2018

NOTES: SATELLITE DATA IS BEING USED TO AUGMENT CLOUD COVER ABOVE
       12000 FEET.
       "FAIR" INDICATES FEW OR NO CLOUDS BELOW 12,000 FEET WITH NO
       SIGNIFICANT WEATHER AND/OR OBSTRUCTIONS TO VISIBILITY.


NEZ001>004-019>022-054>056-181000-
NEBRASKA PANHANDLE

CITY           SKY/WX    TMP DP  RH WIND       PRES   REMARKS
SCOTTSBLUFF    CLEAR     20  16  84 CALM      30.10F
ALLIANCE       CLEAR     10   8  92 W6        30.07F WCI   0
CHADRON        PTCLDY    24  19  81 SW8       30.04F WCI  15
GORDON         FAIR      27  20  76 W7        30.04S WCI  19
KIMBALL        CLEAR     25  18  74 W10       30.12F WCI  15
SIDNEY         CLEAR     22  16  78 W6        30.12F WCI  14
$$

NEZ057>060-069>072-079>082-181000-
SOUTHWEST NEBRASKA

CITY           SKY/WX    TMP DP  RH WIND       PRES   REMARKS
NORTH PLATTE   CLEAR     14  11  87 NW5       30.13F WCI   6
IMPERIAL       CLEAR     20  14  77 W8        30.14F WCI  10
LEXINGTON      CLEAR     16  12  84 W6        30.15F WCI   8
MCCOOK         CLEAR     17  13  84 W8        30.17F WCI   7
OGALLALA       CLEAR     19  15  88 W8        30.13F WCI   8
$$

NEZ005>010-023>029-035>040-094-181000-
NORTH CENTRAL NEBRASKA

CITY           SKY/WX    TMP DP  RH WIND       PRES   REMARKS
VALENTINE      CLEAR     23  18  81 SW12      30.03F WCI  12
AINSWORTH      CLEAR     26  21  82 SW8       30.05F WCI  17
BROKEN BOW     CLEAR     26  15  63 VRB3      30.11F
O`NEILL        CLEAR     18  16  92 SW8       30.08F WCI   7
ORD            CLEAR     13  10  88 CALM      30.12F
THEDFORD       CLEAR     25  19  80 SW6       30.08F WCI  18
$$

NEZ041-046>049-061>064-073>077-083>087-181000-
SOUTH CENTRAL NEBRASKA

CITY           SKY/WX    TMP DP  RH WIND       PRES   REMARKS
GRAND ISLAND   CLOUDY    15  10  80 W8        30.18R WCI   4
AURORA         CLOUDY    14  10  81 SW8       30.18S WCI   3
HASTINGS       CLOUDY    19  10  68 SW5       30.17F WCI  12
HEBRON         CLOUDY    16   9  71 SW3       30.22F
HOLDREGE       CLOUDY    20  14  78 W7        30.16S WCI  11
KEARNEY        CLOUDY    16  11  80 NW7       30.17S WCI   6
YORK           CLOUDY    14  10  85 CALM      30.19S
$$

NEZ011>018-030>034-042>045-181000-
NORTHEAST NEBRASKA

CITY           SKY/WX    TMP DP  RH WIND       PRES   REMARKS
NORFOLK        CLOUDY    18  13  80 SW6       30.12F WCI  10
ALBION         CLOUDY    23  17  77 NW6       30.14F WCI  15
BLAIR          CLOUDY    21  12  68 SW10      30.18F WCI  10
COLUMBUS       CLOUDY    19  13  77 SW7       30.18F WCI  10
FREMONT        CLOUDY    20  12  72 SW3       30.20R
TEKAMAH        CLOUDY    14   9  80 SE6       30.19F WCI   5
WAYNE          CLOUDY    20  15  79 SW8       30.13S WCI  11
$$

NEZ050>053-065>068-078-088>093-181000-
SOUTHEAST NEBRASKA

CITY           SKY/WX    TMP DP  RH WIND       PRES   REMARKS
LINCOLN        CLOUDY    19   9  65 SW8       30.23F WCI   9
OMAHA EPPLEY   CLOUDY    14   9  80 SE8       30.23S WCI   3
BEATRICE       CLOUDY    17   8  69 S8        30.24F WCI   7
FALLS CITY     CLOUDY    15   8  73 SE3       30.27F
NEBRASKA CITY  CLOUDY    19  10  68 SW13      30.23F WCI   7
PLATTSMOUTH    CLOUDY    20  10  66 S8        30.22S WCI  10
$$

NEZ044-045-051>053-067-181000-
OMAHA AREA

CITY           SKY/WX    TMP DP  RH WIND       PRES   REMARKS
OMAHA EPPLEY   CLOUDY    14   9  80 SE8       30.23S WCI   3
BLAIR          CLOUDY    21  12  68 SW10      30.18F WCI  10
FREMONT        CLOUDY    20  12  72 SW3       30.20R
MILLARD        CLOUDY    18  12  76 CALM      30.22F
OFFUTT AFB     CLOUDY     5   1  85 CALM      30.22F
PLATTSMOUTH    CLOUDY    20  10  66 S8        30.22S WCI  10
WAHOO          FAIR      22  11  64 CALM      30.21S
$$




USA.gov is the U.S. government's official web portal to all federal, state and local government web resources and services.